Погода в Кузьмовке

Погода в Кузьмовке : погода сейчас, прогноз погоды и архив. Всё, что Вы хотите узнать о погоде в Кузьмовке!

Поиск расширенной информации на нашем сайте:

Другие новости

Новости СМИ2

Главная страница сайта

Новости сайта

03.07.2017

Напоминаем, что на нашем специализированном сайте Метеоцентр.Азия вы можете получить высокодетализированные автоматические прогнозы погоды по пунктам России, СНГ и мира в авиационном формате (включающие направление и скорость ветра, видимость, явления погоды, количество и форму облачности, нижнюю и верхнюю границу облачности).

Рекомендуем: Комплексные системы безопасности и слаботочные сети читать дальше.

Погода в Кузьмовке - сегодня

Время (UTC), дата Ветер
(°,м/с) 
Видим.   Явления Облачность Т
(°С)
Тd
(°С)
f(%) Тe
(°С)
Pmin
(гПа)
dP
(гПа)
Po
(мм)
O2
(г/м3)
Тmin Tmax R s Состояние
почвы
18 16.11.17 130 (ЮВ) 10 км  слаб. снег  10/10 2000 м 
[Ns]
-22.4 -25.6 75 -23  1031.4  -2.6  767  338           
00 17.11.17 100 (В) 10 км  слаб. снег  10/10 2000 м 
[Ns]
-19.8 -22.4 80 -20  1027.5  -0.9  764  334  -26.5    52  равномерный
сухой снег
100% 
03 17.11.17 080 (В) 10 км  слаб. снег  10/10 2000 м 
[Ns]
-19 -21.6 80 -19  1027.2  -0.3  764  332           
06 17.11.17 тихо ()   10 км  слаб. снег  10/10 2000 м 
[As trans]
-18.3 -20.9 80 -18  1026.7  -0.4  764  331           
09 17.11.17 тихо ()   20000 м  {снег}  10/10 2000 м 
[As trans]
-18.4 -21 80 -18  1026.1  -0.6  763  331           
12 17.11.17 тихо ()   20000 м  {снег}  10/10 2000 м 
[As trans]
-19.4 -22 80 -19  1025.7  -0.5  763  333    -18.3  0.4     
15 17.11.17 070 (В) 10 км  слаб. снег  10/10 2000 м 
[Ns]
-17.6 -20.2 80 -18  1024.3  -1.3  762  330           
18 17.11.17 090 (В) 10 км  слаб. снег  10/10 2000 м 
[Ns]
-16.7 -19.3 80 -17  1022.8  -1.5  761  328           
00 18.11.17 тихо ()   10 км  слаб. снег  10/10 2000 м 
[Ns]
-15.4 -18.1 80 -15  1021  -0.6  760  326  -19.5    51  равномерный
сухой снег
100% 
03 18.11.17 тихо ()   4000 м  слаб. снег  10/10 2000 м 
[Ns]
-15 -17.7 80 -15  1020.7  -0.3  759  325           
06 18.11.17 тихо ()   10 км  слаб. снег  10/10 2000 м 
[Ns]
-13.8 -16.5 80 -14  1020.2  -0.5  759  323           
09 18.11.17 170 (Ю) 10 км  слаб. снег  10/10 2000 м 
[Ns]
-13.1 -15.8 80 -13  1019.9  -0.3  759  322           
12 18.11.17 180 (Ю) 10 км  слаб. снег  10/10 2000 м 
[Ns]
-12.2 -14.2 85 -12  1019.4  -0.4  758  321    -12.2     
15 18.11.17 тихо ()   10 км  слаб. снег  10/10 2000 м 
[Ns]
-11.4 -13.4 85 -11  1018.5  -0.9  758  320           
03 19.11.17 тихо ()   4000 м  слаб. снег  10/10 2000 м 
[Ns]
-10 -11.7 87 -10  1009.2  -3.1  751  315           
06 19.11.17 150 (ЮВ) 4000 м  слаб. снег  10/10 2000 м 
[Ns]
-9.5 -11.1 88 -9  1005.9  -3.3  748  313           
09 19.11.17 тихо ()   4000 м  слаб. снег  10/10 2000 м 
[Ns]
-8.9 -10.4 89 -9  1004.9  -0.9  748  312           
18 19.11.17 290 (З) 4000 м  слаб. снег  10/10 2000 м 
[Ns]
-12.7 -16.2 75 -15  1013.7  2.3  754  320           
21 19.11.17 310 (СЗ) 4000 м  слаб. снег  10/10 2000 м 
[Ns]
-15.4 -19.6 70 -18  1015.6  1.9  755  324           
03 20.11.17 300 (СЗ) 10 км  слаб. снег  10/10 2000 м 
[As trans]
-19.7 -23.8 70 -22  1020.3  759  331  -19.7         
06 20.11.17 280 (З) 10 км  слаб. снег  10/0 верхняя 
[Cs]
-21.3 -26.1 65 -24  1023.1  2.8  761  334           
09 20.11.17 290 (З) 20000 м  {снег}  8/0 верхняя 
[Ci fib]
-22.8 -27.7 64 -23  1025.6  2.3  763  337           
12 20.11.17 080 (В) 20000 м  {снег}  8/0 верхняя 
[Ci fib]
-27.8 -31 74 -28  1028.2  2.4  764  345    -17.7  0.6     
15 20.11.17 тихо ()   10 км  слаб. снег  10/0 600 м верхняя 
[Cs]
-26.9 -30 75 -27  1029.4  1.3  765  344           
03 21.11.17 тихо ()   20000 м  {снег}  10/0 верхняя 
[Ci sp]
-27.6 -30.7 75 -28  1029.5  -0.2  765  345  -27.6         
Время (UTC), дата Ветер
(°,м/с) 
Видим.   Явления Облачность Т
(°С)
Тd
(°С)
f(%) Тe
(°С)
Pmin
(гПа)
dP
(гПа)
Po
(мм)
O2
(г/м3)
Тmin Tmax R s Состояние
почвы

Для получения пояснительной информации подведите курсор к названию столбца.

ПОГОДА в Кузьмовке - архив

Всё, что Вы хотите узнать о погоде в Кузьмовке - удобно и подробно!

Выберите нужную дату (начиная с 1 января 2015* года) и нажмите кнопку "Найти".
Будут отображены архивные сводки погоды по пункту Кузьмовка, начиная с указанной даты.


Отображать данные в формате CSV (для использования в таблицах Excel)


Внимание! Наш архив погоды предназначен исключительно для личного некоммерческого использования в познавательных целях. Если Вам необходимы официальные справки о состоянии погоды (для производственных, юридических, коммерческих и т.п. целей), обращайтесь в органы Росгидромета.

*Примечание: данная дата относится к архиву по метеостанциям СССР (Россия, СНГ, Балтия).
Архив по метеостанциям Зарубежной Европы и Азии (кроме Китая) хранится 10 дней, по другим регионам земного шара (Китай, Африка, Америка, Австралия, Океания) - 1 день.

Кузьмовка - район местоположения метеостанции


Название, широта, долгота, высота метеостанции:
Кузьмовка 62.3°ш. 92.1°д. 60 м над ур. моря [Российская Федерация]

Дополнительная информация

В oтличие oт бoльшинства пoгoдных сайтoв мы публикуем пoдрoбную метеoинфoрмацию в детальнoм прoфессиoнальнoм фoрмате.

Характеристики температуры и влажнoсти вoздуха измеряются на высoте 2 м в тени вдали oт зданий и деревьев.
Скoрoсть ветра измеряется на высoте 10 м (на урoвне рoста челoвека скoрoсть ветра ниже в 1.5-2 раза). Если метеoстанция нахoдится в гoрoде или в лесу, тo скoрoсть ветра занижена на 2-4 м/с пo сравнению с oткрытым местoм. Скoрoсть ветра над акватoриями крупных рек и oзёр, а также на вершинах хoлмoв на 2-5 м/с выше, чем в oбычных услoвиях.
Атмoсфернoе давление в разных тoчках местнoсти мoжет значительнo oтличаться oт давления на метеoстанции, в зависимoсти oт услoвий рельефа (при пoдъёме на 10 м давление пoнижается примернo на 1 мм рт.ст.).